Home > Weather > Mexicali > Past weeks

Flag for Mexico Weather for the Past 2 Weeks in Mexicali, Baja California, Mexico

Now
70 °F

Sunny.


Feels Like: 74 °F
Forecast: 44 / 78 °F
Wind: 5 mph from Northwest

Location: Imperial County Airport

Current Time: Feb 6, 2016 at 5:29:43 PM

Latest Report: Feb 6, 2016 at 4:53 PM


Visibility: 10 mi

Pressure: 30.20 "Hg

Humidity: 19%

Dew point: 26 °F

Location of MexicaliLocation

Historic Weather in Mexicali — Graph

°F

Mexicali Temperature Yesterday

Maximum temperature yesterday: 72 °F (at 2:53 PM)
Minimum temperature yesterday: 39 °F (at 4:53 AM)
Average temperature yesterday: 55 °F

High & Low Weather Summary for the Past Weeks

 TemperatureHumidityPressure
High84 °F (Jan 30, 12:53 PM)68% (Jan 31, 5:00 PM)30.42 "Hg (Jan 31, 5:00 PM)
Low33 °F (Feb 3, 6:53 AM)11% (Jan 27, 1:53 PM)29.60 "Hg (Jan 31, 3:53 PM)
Average56 °F38%30.11 "Hg
* Reported Jan 22 3:53 PM — Feb 6 3:53 PM, Mexicali, Weather by CustomWeather, © 2016

Note: Actual official high and low records may vary slightly from our data, if they occured in-between our weather recording intervals... More about our weather records

Advertising

Mexicali Weather History for the Previous 24 Hours

 ConditionsComfort  
Time TempWeatherWind HumidityBarometerVisibility
3:53 PM
Sat, Feb 6
73 °FSunny.6 mph17%30.20 "Hg10 mi
2:53 PM74 °FSunny.3 mph14%30.21 "Hg10 mi
1:53 PM73 °FSunny.3 mph14%30.23 "Hg10 mi
12:53 PM72 °FSunny.7 mph14%30.26 "Hg10 mi
11:53 AM71 °FSunny.7 mph16%30.31 "Hg10 mi
10:53 AM69 °FSunny.7 mph18%30.34 "Hg10 mi
9:53 AM66 °FSunny.3 mph22%30.36 "Hg10 mi
8:53 AM59 °FSunny.8 mph33%30.35 "Hg10 mi
7:53 AM48 °FSunny.3 mph46%30.36 "Hg10 mi
6:53 AM42 °FSunny.8 mph51%30.36 "Hg10 mi
5:53 AM42 °FClear.8 mph49%30.35 "Hg10 mi
4:53 AM42 °FClear.7 mph51%30.34 "Hg10 mi
3:53 AM42 °FClear.7 mph49%30.34 "Hg10 mi
2:53 AM43 °FClear.7 mph49%30.33 "Hg10 mi
1:53 AM43 °FClear.8 mph47%30.33 "Hg10 mi
12:53 AM44 °FClear.7 mph45%30.34 "Hg10 mi
11:53 PM
Fri, Feb 5
44 °FClear.9 mph45%30.34 "Hg10 mi
10:53 PM48 °FClear.5 mph39%30.34 "Hg10 mi
9:53 PM50 °FClear.7 mph39%30.34 "Hg10 mi
8:53 PM51 °FClear.5 mph41%30.34 "Hg10 mi
7:53 PM54 °FClear.6 mph37%30.33 "Hg10 mi
6:53 PM58 °FClear.No wind32%30.31 "Hg10 mi
5:53 PM63 °FClear.3 mph27%30.31 "Hg10 mi
Weather by CustomWeather, © 2016

See weather overviewHow to use our weather pages